User: anonymous   Login
Location: Broad Creek
(39.7000°N, 76.2570°W)
Time: 12:18:41
(UTC-05:00)
Language:

ETS-7 - Orbit

View from above orbital plane
View from above orbital plane
View from above satellite
View from above satellite

Ground track
Ground track

The orbit data is extracted from the following two-line orbital elements,

1 25064U 97074B   14353.76319594  .00046465  00000-0  60191-3 0  3320
2 25064 034.9593 127.7994 0004391 034.5622 105.7717 15.57770975950027
Epoch (UTC): 19 December 2014 18:19:00
Eccentricity: 0.0004391
inclination: 34.9593°
perigee height: 391 km
apogee height: 397 km
right ascension of ascending node: 127.7994°
argument of perigee: 34.5622°
revolutions per day: 15.57770975
mean anomaly at epoch: 105.7717°
orbit number at epoch: 95002

The dashed part of the orbit path shows where the satellite is in the earth's shadow,  

DLR